User: anonymous   Login
Location: Koslow
(50.3020°N, 18.5663°E)
Time: 16:22:31
(UTC+00:00)
Language:

STARLINK-1357 - Orbit

View from above orbital plane
View from above orbital plane
View from above satellite
View from above satellite

Ground track
Ground track

The orbit data is extracted from the following two-line orbital elements,

1 45565C 20025AL  21128.13456674 -.00000003  00000-0 -20868-6 0  1283
2 45565  53.0565  96.9922 0001401  62.8388  51.5353 15.06393660    11
Epoch (UTC): 08 May 2021 03:13:46
Eccentricity: 0.0001401
inclination: 53.0565°
perigee height: 546 km
apogee height: 548 km
right ascension of ascending node: 96.9922°
argument of perigee: 62.8388°
revolutions per day: 15.06393660
mean anomaly at epoch: 51.5353°
orbit number at epoch: 1

The dashed part of the orbit path shows where the satellite is in the earth's shadow,  

DLR